STARLINK-37686, 69470

Orbit data source: Space-Track

STARLINK-37686, 69470 is a payload satellite owned by SpaceX/Seattle (US) in LEO that was launched on Mon, 08 Jun 2026 UTC via an FALCON 9 launch vehicle from the Air Force Eastern Test Range (AFETR). Payload-class satellites include a variety of spacecraft equipped with specific instruments for various scientific and technological missions. These include communications satellites like Starlink; space stations such as the ISS; scientific satellites like the Hubble; Earth observation satellites from companies like Planet Labs, Umbra, and HawkEye 360; GPS; miniature CubeSats for education and research; and military/defense satellites.

Loading next visibility...
Identifier
69470, 2026-127AD
Orbit
LEO
Country
Flag of USUS
Related business
Manufacturer
SpaceX/Seattle
Mission
Operational spacecraft
Bus & Motor
STARLINK V2MO, Unknown motor
Mass
575 kg wet, ~530 kg dry
Launch date (UTC)
2026-06-08 (2 weeks ago)
Launch vehicle
FALCON 9
Launch site
Air Force Eastern Test Range (AFETR)
Object type
Payload
Rocket body
Debris
Shape & HBR
Unknown
Radar Cross Section
Large (>1 m²)

Expand to show TLE details & history
Last TLE update: 10 hours ago

TLE from 10 hours ago
0 STARLINK-37686
1 69470U 26127AD  26171.41668980 -.00101155  00000-0 -51377-3 0  9994
2 69470  53.1588 245.6660 0001019  82.0539 263.4920 15.80923507  3161
Epoch: 2026-06-20T10:00Z
TLE epoch observation values (Epoch: 2026-06-20T10:00:01.998Z)
Latitude
-11.68127°
Longitude
178.16566°
Altitude
331.067 km
Speed
7.71 km/s
True Right ascension
15h 47m 13s
True Declination
-11° 36' 32"
Sunlit
Object was in full shadow at epoch
Visualization orbit readout
Latitude
Unknown
Longitude
Unknown
Altitude
Unknown
Speed
Unknown
Apparent Right ascension
Unknown
Apparent Declination
Unknown
Sunlit
N/A
Visualization observer readout
Local Sidereal Time
07:15:14
Azimuth
Unknown
Elevation
Unknown
Doppler factor
Unknown
Orbital elements
Apogee altitude
328.773 km
Perigee altitude
327.407 km
Semi-major axis
6,706.227 km
Eccentricity
0.0001
Inclination
53.1588°
RAAN
245.666°
Arg. of periapsis
82.0539°
True anomaly
263.4804°
Mean anomaly
263.492°
Eccentric anomaly
263.4862°
Mean motion
3.95208 °/min
Orbital period
91.09 mins
BSTAR
-0.00051377
Loading maneuver chart data...
Computing Atmospheric mass density...
Loading historical data...
Loading historical data...
Loading historical data...
Loading historical data...
Loading historical data...
Loading historical data...
Loading historical data...

Documentation

Showing up to 5 results
|